RH
11 11 10 10 9 9 9 9 9 9 8 8 9 9 9 9 8 8 9 9 10 10 10 9 7 6 4 3 3 3 3 4 5 5 5 5 4 5 7 9 14 16 17 20 21 24 26 27 30 33 37 45 52 56 59 61 63 68 70 72 77 79 79 80 85 90 92 91 87 85 87 87 86 82 76 73 68 61 56 49 44 45 46 46 46 47 51 53
12 12 11 11 10 10 9 9 9 9 8 8 8 8 9 9 9 9 9 9 10 10 10 10 9 7 6 5 3 3 3 3 4 5 5 5 5 5 6 8 12 16 18 19 20 21 22 25 29 33 41 47 52 54 57 60 63 68 71 73 78 78 77 77 82 88 86 84 84 85 87 87 86 83 77 73 69 61 57 51 44 45 47 47 46 48 51 52
13 13 13 12 12 11 10 9 9 8 8 8 8 8 8 8 9 10 10 11 10 10 10 11 11 10 9 6 4 4 3 3 4 5 5 5 5 5 5 7 11 14 16 18 18 18 19 22 26 34 43 47 51 54 57 62 64 66 68 74 78 76 76 76 80 86 83 80 81 85 88 87 86 83 78 74 68 62 59 53 46 46 46 46 47 48 50 52
14 14 14 14 13 12 11 10 9 9 8 8 8 7 7 8 8 9 10 11 11 11 11 11 11 12 11 8 6 5 3 6 7 6 7 6 5 5 5 6 9 12 15 16 16 17 18 21 25 35 43 46 50 52 56 61 63 64 66 73 77 75 76 77 81 83 79 78 81 85 87 88 85 80 77 73 67 64 60 55 49 45 44 45 47 47 49 52
14 14 14 14 14 14 12 11 10 9 9 9 9 8 7 7 7 8 9 11 11 11 11 11 11 12 12 10 8 6 5 10 10 7 8 7 5 5 5 6 8 11 13 15 16 17 20 23 26 33 38 41 46 51 56 59 60 62 65 70 74 74 76 77 82 84 79 77 79 84 86 87 83 77 75 73 68 64 59 56 51 45 42 42 44 45 48 51
14 14 14 14 14 14 13 12 11 10 9 9 9 8 8 8 8 8 8 10 10 10 11 11 11 11 12 11 10 8 7 11 12 10 9 6 5 5 6 7 7 10 12 14 16 17 21 27 29 31 34 38 45 50 54 58 59 61 63 67 71 72 75 77 82 86 85 81 80 83 85 85 83 77 75 74 71 66 62 57 51 46 43 42 43 44 46 50
15 15 14 14 14 14 13 13 11 10 10 9 9 9 8 8 8 8 8 9 10 10 10 11 11 11 11 11 11 10 7 10 13 14 11 7 6 5 6 8 8 9 11 13 14 17 22 28 30 31 34 39 45 47 50 56 58 59 62 67 69 69 72 77 82 86 88 87 83 82 85 87 83 80 80 77 72 69 66 57 51 50 45 43 44 44 46 49
14 14 14 14 14 14 14 13 12 10 10 9 9 9 8 8 9 9 9 9 10 10 10 11 11 11 11 10 11 11 8 9 12 14 13 9 6 4 5 7 9 9 10 13 13 16 22 27 30 32 36 40 44 44 46 52 55 55 59 64 67 68 70 76 83 86 86 87 86 83 86 89 84 84 86 82 75 70 65 55 52 54 49 45 45 45 47 49
14 14 14 14 14 14 14 13 12 11 9 9 9 8 8 8 9 10 10 11 11 10 10 10 10 10 10 10 10 11 10 9 11 13 14 13 9 6 5 6 8 9 9 11 13 15 21 27 31 35 40 42 43 41 41 48 53 52 55 62 67 68 69 75 82 87 87 86 86 85 88 90 84 84 86 84 79 72 67 59 53 55 51 46 45 45 47 49
14 14 14 14 14 14 14 14 13 11 10 9 9 9 8 8 9 10 11 12 12 10 9 9 10 10 10 9 9 11 12 12 13 14 14 15 13 10 8 6 7 8 9 10 11 14 20 28 34 39 42 42 41 38 38 44 47 46 52 62 67 67 71 74 78 84 86 87 86 85 90 91 85 85 87 86 82 76 72 64 56 56 52 47 47 46 46 48
14 14 15 14 14 14 15 14 14 13 11 10 9 9 8 7 8 9 11 12 12 10 9 9 9 9 9 10 9 11 15 16 15 14 13 14 14 12 9 8 7 8 9 9 10 15 22 29 35 40 40 39 37 34 34 37 37 39 48 62 69 68 73 74 75 80 83 87 87 84 89 91 89 92 92 89 86 80 74 65 58 57 53 50 50 48 47 47
14 14 15 15 15 15 15 15 14 14 12 10 10 9 8 7 8 10 11 12 12 10 10 9 10 10 10 10 8 12 18 18 16 15 13 12 13 11 10 10 8 8 9 9 9 15 23 29 34 38 37 36 35 31 32 31 30 36 47 63 72 71 74 74 74 77 81 85 85 83 89 92 94 96 91 87 86 83 76 66 59 56 53 52 52 50 47 46
14 14 15 15 15 16 16 15 15 15 13 11 11 9 9 8 9 10 11 12 11 10 10 10 11 12 12 10 8 13 17 18 19 18 15 13 11 11 11 10 8 7 9 10 9 16 27 31 35 37 34 33 33 31 30 28 29 39 50 62 72 73 75 75 75 77 80 85 84 83 89 93 93 94 90 85 84 83 79 69 61 54 51 52 53 52 47 44
14 14 15 15 16 16 16 16 15 15 14 12 11 10 9 9 10 11 11 11 11 11 11 11 13 14 15 11 8 12 14 16 20 20 19 16 11 10 10 9 8 7 9 10 9 18 31 33 33 34 31 31 32 29 28 27 30 41 55 62 68 73 76 75 76 79 82 86 86 84 90 93 91 90 90 86 84 84 81 75 67 56 49 51 53 53 48 44
14 14 15 15 16 17 17 16 15 15 15 13 12 11 10 10 10 11 11 11 11 11 10 11 14 16 18 14 9 11 12 15 19 19 20 19 14 11 9 9 8 7 9 10 8 19 30 31 30 30 30 30 29 28 27 27 28 38 56 66 68 73 77 76 78 81 83 85 85 86 90 92 88 88 88 86 84 85 82 79 75 62 52 51 52 53 49 46
14 15 15 16 16 17 18 17 16 16 15 14 13 11 10 10 11 11 12 12 11 11 9 11 13 15 18 16 13 14 14 15 18 18 19 18 16 11 9 9 8 7 9 9 12 22 28 26 27 28 28 29 28 29 28 27 29 33 48 66 73 75 79 80 79 79 81 83 84 86 89 89 87 86 85 84 85 85 83 81 79 69 57 52 51 52 49 47
15 16 16 17 17 17 18 18 17 16 15 13 12 11 11 12 13 13 14 14 14 11 10 10 11 14 15 14 16 17 17 17 17 17 17 17 16 12 9 10 8 8 9 9 17 25 25 23 24 25 26 27 27 28 28 27 28 29 39 60 73 75 79 80 77 77 79 83 85 84 86 86 85 85 83 85 87 86 84 83 80 73 64 56 52 50 49 48
17 17 17 17 17 17 18 18 17 15 13 13 13 12 14 15 16 17 17 17 15 13 13 13 14 17 16 15 18 19 20 20 18 18 17 16 15 12 10 10 8 9 10 11 18 25 24 22 22 23 24 24 25 26 27 26 26 28 35 53 69 73 77 77 74 75 78 81 83 82 82 82 82 85 85 86 88 86 85 84 82 77 72 63 53 50 50 49
18 18 18 17 17 18 18 18 16 14 13 14 14 14 15 16 17 20 20 18 15 14 15 15 17 21 20 19 20 20 21 22 19 18 17 15 15 13 11 10 10 11 12 13 18 23 24 22 21 21 22 23 23 23 25 27 28 30 33 46 62 69 74 71 67 71 74 78 81 80 79 79 81 84 84 86 87 85 86 88 85 82 77 68 57 50 51 50
19 18 18 18 18 18 19 18 15 14 13 13 13 13 14 15 17 20 19 16 14 13 13 16 18 20 21 22 21 21 21 22 21 19 18 17 16 16 13 11 12 13 14 15 19 21 23 24 22 20 20 20 22 23 25 29 30 32 32 40 53 61 65 62 59 64 69 75 79 78 78 79 80 83 81 83 86 85 87 89 88 84 78 71 62 53 51 51
20 19 19 18 18 18 19 17 15 13 13 12 12 13 13 13 15 16 15 14 13 12 13 16 18 20 21 22 22 22 23 24 23 23 22 20 20 19 14 14 17 17 17 18 20 21 21 24 22 18 18 18 20 23 25 28 31 34 34 36 43 49 51 50 52 59 63 71 79 77 79 81 78 80 81 82 82 82 85 88 89 85 78 74 67 56 53 52
21 21 20 18 18 18 18 17 15 14 13 13 13 14 13 13 13 13 13 13 12 11 13 16 19 21 22 23 23 24 25 25 23 25 26 23 23 21 16 18 23 22 21 22 21 21 21 20 19 18 18 17 18 21 24 28 31 34 35 35 37 41 48 50 52 57 61 70 81 81 81 83 77 75 78 81 80 80 84 88 91 87 80 78 73 63 58 54
22 21 20 19 18 18 17 16 15 16 16 16 14 13 13 13 13 13 13 14 15 13 13 16 19 20 21 23 25 25 27 27 23 23 25 25 24 22 19 21 25 25 24 23 22 22 21 18 16 17 17 16 16 19 22 26 29 32 32 35 38 42 51 57 58 60 63 70 79 82 84 87 81 75 76 79 80 83 86 88 91 89 84 80 77 71 65 58
23 22 20 19 18 17 16 15 14 16 17 17 15 13 13 12 13 14 15 17 19 16 13 15 17 17 17 19 22 25 26 26 25 24 24 26 25 22 21 21 23 25 25 23 22 22 20 16 15 16 16 15 15 17 21 25 28 30 30 34 38 41 47 56 62 64 68 72 73 77 85 88 82 77 78 78 79 84 87 88 90 89 85 81 79 76 70 63
23 21 19 18 17 16 15 14 14 15 16 17 16 14 13 14 17 17 19 23 23 19 14 12 15 15 15 17 19 21 24 26 27 26 25 25 25 24 22 21 21 23 23 22 22 21 19 16 15 16 17 15 13 14 18 22 26 28 29 33 35 37 43 54 64 68 74 79 73 73 83 85 81 80 79 77 77 82 86 87 86 87 85 80 79 78 73 66
23 21 19 17 16 15 14 14 14 15 15 16 15 14 15 18 21 20 25 30 27 23 18 14 17 17 15 19 18 18 24 27 24 26 28 27 27 25 23 22 20 21 21 22 22 21 19 16 15 17 17 16 15 13 13 17 22 25 29 32 32 35 41 51 61 67 75 79 73 71 77 79 80 80 78 75 76 80 85 86 85 85 85 81 80 81 77 70
23 21 18 16 14 14 13 13 14 14 14 15 14 14 17 22 24 24 31 36 30 26 23 19 20 20 16 17 17 17 24 25 20 24 29 29 29 27 26 24 21 20 20 21 22 20 17 16 16 16 16 17 17 14 11 13 17 22 28 33 34 35 40 45 56 64 67 71 75 74 72 74 77 78 75 74 75 79 82 85 87 86 85 82 82 82 80 74
21 20 18 15 13 12 12 12 13 14 13 14 13 14 19 25 27 28 33 35 30 28 26 24 23 22 17 15 15 16 20 20 19 24 28 29 31 29 28 27 24 23 22 22 23 21 17 18 17 17 16 17 16 14 12 11 14 20 28 31 32 34 37 40 53 65 66 70 80 78 70 70 74 75 75 75 77 78 76 81 88 88 85 83 82 82 82 78
20 19 17 14 13 12 12 13 14 15 15 15 14 15 21 26 28 31 33 30 28 28 28 28 27 25 21 17 17 17 17 18 20 24 26 28 31 30 29 30 27 27 25 24 25 22 20 21 20 18 16 16 14 13 13 11 11 18 25 28 27 29 33 36 50 67 70 71 75 75 70 70 72 75 76 78 79 74 70 76 84 86 86 83 82 83 83 80
20 19 17 14 14 13 12 15 17 19 23 22 18 17 24 30 31 34 34 29 29 30 28 29 28 27 24 22 21 21 21 20 22 24 25 28 30 30 32 32 30 32 32 27 25 24 23 23 23 20 16 15 14 13 13 11 11 16 23 27 27 29 35 41 54 67 74 73 69 68 68 69 73 75 74 74 71 65 65 71 78 82 84 83 81 82 82 81
21 18 16 14 13 13 14 15 19 25 29 27 24 25 31 34 36 36 32 28 32 31 28 28 28 27 26 24 23 24 24 25 26 26 27 29 30 31 35 36 34 36 38 33 27 26 25 25 25 21 17 15 15 14 14 12 12 15 25 31 31 37 42 49 63 72 74 72 65 64 67 69 71 70 69 68 64 61 64 68 72 77 81 82 81 81 81 81
20 16 14 13 13 13 14 16 22 28 29 28 30 34 37 35 33 33 30 28 31 31 27 26 26 26 26 24 23 26 29 30 32 33 34 37 38 38 40 41 38 38 40 37 31 28 26 25 25 22 19 17 16 17 15 14 14 16 27 34 37 47 49 48 64 75 72 65 59 61 67 70 69 66 66 66 63 63 63 65 68 73 78 82 81 80 80 83
19 14 12 12 12 14 16 19 25 30 29 30 33 36 42 40 34 33 33 31 30 30 28 26 25 24 26 27 25 27 31 31 36 42 43 45 46 42 39 36 34 36 40 39 33 29 27 26 25 22 21 19 18 18 16 17 17 17 26 34 39 51 54 49 53 60 62 61 56 57 65 70 68 65 66 65 63 63 63 64 67 69 74 79 80 79 79 82
17 13 11 12 13 15 19 23 29 31 30 32 34 37 42 42 37 37 37 34 31 31 30 27 24 24 29 32 29 28 31 33 37 44 47 47 44 39 34 31 30 34 36 35 32 30 30 30 28 25 22 21 19 18 18 19 18 17 25 34 38 45 49 47 43 43 50 59 59 59 65 71 68 65 65 64 62 62 63 65 67 68 72 77 80 78 77 79
16 12 12 13 14 17 22 27 31 32 31 32 37 41 42 42 40 39 36 34 32 32 31 28 25 28 32 32 31 31 33 35 36 40 47 49 44 37 33 30 32 34 34 33 33 33 33 32 30 26 23 22 21 19 19 20 20 19 24 32 37 39 43 44 40 38 43 54 64 68 70 70 68 67 65 63 63 63 64 66 67 68 71 75 79 77 76 78
14 12 13 15 18 21 24 27 32 33 31 33 39 41 40 40 39 37 34 34 34 33 32 30 28 32 34 32 34 35 34 36 36 36 42 45 43 40 34 31 34 36 34 34 35 34 34 34 30 28 27 24 23 22 20 20 21 21 22 29 36 39 44 46 44 43 45 52 63 71 75 73 68 69 68 65 65 66 67 67 67 69 70 73 77 77 78 80
14 14 15 17 19 22 23 25 31 34 30 31 38 40 38 34 32 32 31 32 34 33 34 34 31 35 36 34 36 36 35 38 39 37 39 40 40 41 37 33 36 39 36 35 36 35 35 38 34 30 29 26 23 23 21 19 21 21 20 26 34 40 44 46 49 50 53 64 71 70 73 75 71 72 71 68 68 69 70 69 67 69 70 72 75 77 79 80
17 19 19 19 20 23 24 25 30 33 30 33 40 41 38 32 29 29 27 27 33 35 37 37 34 36 38 37 38 37 36 39 40 40 42 40 38 39 39 37 37 41 40 38 40 39 37 42 42 35 32 30 25 25 24 21 20 21 21 24 31 40 43 46 50 50 54 73 84 77 72 72 71 75 75 71 70 71 70 70 69 69 70 71 73 74 76 77
19 22 20 20 21 23 25 26 29 31 30 34 39 39 35 30 28 28 26 25 29 34 37 38 37 37 38 37 39 39 37 39 41 41 42 41 38 37 38 38 38 41 42 41 44 45 42 45 46 41 36 33 29 27 26 25 22 22 22 24 31 40 44 44 47 48 58 77 87 81 76 73 70 73 75 74 71 71 72 71 71 71 70 70 72 72 73 75
22 23 20 19 23 24 24 25 28 29 28 29 31 33 32 28 25 26 25 23 25 29 33 37 39 40 38 37 39 40 38 39 41 41 40 40 39 38 36 36 37 40 44 45 45 48 48 47 47 45 40 37 35 31 28 28 25 23 24 25 29 36 40 41 41 44 59 78 84 81 79 74 69 69 72 74 72 72 74 73 72 73 73 72 73 73 74 75
23 25 22 21 24 24 23 24 25 27 28 26 26 28 28 26 24 26 26 25 27 29 29 33 39 41 41 39 39 40 42 41 40 40 40 39 40 40 37 35 36 37 43 47 45 47 51 50 48 47 44 41 40 35 31 30 28 25 26 26 27 31 35 40 42 44 55 70 76 76 76 73 69 69 71 73 71 70 72 72 70 72 75 76 76 76 76 76
25 26 23 23 26 25 23 25 26 26 27 26 23 23 24 25 24 25 27 28 30 30 29 32 38 42 43 42 39 41 45 45 42 41 40 39 39 39 38 37 37 36 39 45 46 46 50 52 52 50 48 46 44 40 36 35 33 29 27 26 26 29 32 37 43 47 54 65 69 70 75 75 70 69 70 70 67 66 69 69 68 69 74 77 79 78 77 76
26 25 22 22 25 24 24 27 28 29 27 22 20 20 21 23 23 24 26 29 30 32 32 34 37 41 42 42 40 41 42 43 43 42 41 41 40 39 38 38 38 37 37 41 45 46 49 52 52 52 52 50 47 45 42 40 39 34 30 28 25 25 27 31 39 48 56 65 68 71 77 75 68 68 69 66 62 64 69 71 69 70 75 78 78 78 81 80
26 23 21 23 24 24 25 26 28 30 28 22 20 20 20 21 23 24 26 28 29 32 36 38 37 38 39 42 43 43 43 45 45 44 43 43 41 38 37 36 37 39 38 38 43 45 47 51 55 56 59 57 52 50 47 44 42 39 34 30 25 25 26 29 38 50 58 62 63 65 73 72 65 65 66 62 62 66 70 72 69 69 76 81 77 76 83 86
26 24 22 22 24 24 24 23 26 28 27 25 22 20 21 21 22 24 25 27 29 31 35 39 37 36 38 41 44 44 45 47 48 46 45 46 44 40 37 35 36 39 40 40 43 45 46 52 59 62 64 64 60 57 53 48 44 41 37 32 26 25 28 29 37 48 55 60 60 59 65 68 65 64 64 61 62 65 65 67 68 68 73 79 78 76 80 85
29 28 26 24 22 22 21 21 23 24 25 27 24 19 20 21 21 22 23 24 28 30 33 37 36 34 36 40 43 44 44 45 48 50 48 47 47 43 38 37 36 37 39 39 41 47 52 55 60 64 66 64 61 59 56 51 46 42 38 34 29 27 28 31 35 42 47 57 65 61 57 61 65 66 65 63 62 63 63 65 70 72 73 76 77 76 76 79
34 32 32 31 25 21 22 21 22 22 21 24 24 20 20 21 21 23 23 22 24 26 31 35 35 36 40 43 45 47 48 49 50 51 50 48 48 46 43 40 38 37 37 36 37 45 53 54 55 60 65 62 57 54 52 49 45 42 39 36 33 30 30 32 33 36 42 52 62 63 55 55 62 66 66 65 65 64 64 66 72 76 76 76 77 76 75 75
37 34 33 34 30 24 23 22 22 23 21 21 22 21 20 21 21 23 24 23 23 24 29 34 34 38 45 49 49 50 53 54 52 53 53 50 49 50 47 44 42 39 38 37 37 41 47 49 49 53 58 59 55 51 49 46 43 42 41 39 39 38 36 34 35 39 43 47 54 61 61 59 61 66 67 66 66 66 65 65 70 75 77 78 77 74 71 71
37 37 35 35 33 29 27 26 24 24 25 26 24 21 20 20 19 19 20 23 25 25 29 34 34 35 39 45 49 49 50 54 54 53 54 52 51 50 49 47 45 41 41 41 39 39 41 43 47 52 54 57 55 52 50 47 43 44 44 41 43 48 43 37 41 47 48 48 51 57 64 66 64 65 66 66 66 66 65 64 66 70 74 75 74 70 66 66
35 39 39 38 36 34 32 29 27 26 28 30 26 20 19 19 17 16 17 20 24 25 28 32 33 34 34 36 41 41 41 47 51 51 50 51 51 49 47 47 45 42 44 44 41 39 38 38 43 51 54 55 56 55 53 48 44 46 47 41 44 55 54 45 49 55 52 53 57 59 67 73 70 66 66 67 67 67 66 66 66 67 68 68 69 70 68 68
34 37 38 40 40 38 36 32 30 29 28 28 26 22 22 21 18 17 16 17 20 23 26 28 29 31 32 33 35 34 32 34 39 43 46 46 44 44 45 45 43 42 43 42 41 42 41 40 43 48 52 51 52 56 57 52 45 46 49 44 43 53 59 55 55 57 54 55 63 67 69 72 71 69 69 69 69 70 70 67 64 63 63 65 70 75 75 74
30 31 33 36 37 37 38 35 30 27 25 27 26 23 23 21 18 18 19 19 20 21 22 22 23 25 27 27 29 30 28 27 28 33 38 39 38 39 40 41 42 43 43 41 41 45 46 43 42 46 49 47 49 57 62 57 52 52 54 50 47 51 56 58 58 57 54 53 57 62 63 64 66 68 70 69 68 70 70 65 60 59 61 67 75 79 78 76